Location: Sternwarte_Laufen
(47.9344°N, 12.9346°E)
Time: 09:21:35
(UTC+02:00)

Envisat - Visible Passes

Search period start: 26 March 2017 00:00
Search period end: 05 April 2017 01:00
Orbit: 764 x 766 km, 98.2° (Epoch: 24 March)

Date Brightness Start Highest point End Pass type
(mag) Time Alt. Az. Time Alt. Az. Time Alt. Az.
26 Mar 2.9 21:02:12 12° SSE 21:06:55 83° ENE 21:12:02 10° NNW visible
26 Mar 5.6 22:43:52 10° WSW 22:46:35 14° W 22:49:19 10° NW visible
27 Mar 3.5 20:25:36 10° SE 20:30:21 41° ENE 20:35:06 10° N visible
27 Mar 4.7 22:05:09 10° SSW 22:09:29 29° W 22:13:55 10° NNW visible
28 Mar 3.5 21:27:55 12° S 21:32:34 60° W 21:37:37 10° NNW visible
29 Mar 3.0 20:50:50 10° SSE 20:55:52 68° ENE 21:00:56 10° N visible
29 Mar 5.4 22:31:58 10° SW 22:35:23 18° W 22:38:48 10° NW visible
30 Mar 3.7 20:14:49 10° SE 20:19:21 34° ENE 20:23:54 10° N visible
30 Mar 4.4 21:53:41 10° SSW 21:58:20 36° W 22:03:02 10° NNW visible
31 Mar 3.1 21:16:26 10° S 21:21:29 75° WSW 21:26:36 10° NNW visible
31 Mar 5.9 23:00:44 10° W 23:01:24 10° W 23:02:03 10° WNW visible
01 Apr 3.2 20:39:54 10° SSE 20:44:50 55° ENE 20:49:48 10° N visible
01 Apr 5.1 22:20:17 10° SW 22:24:12 22° W 22:28:07 10° NW visible
02 Apr 4.0 20:04:06 10° ESE 20:08:23 28° ENE 20:12:41 10° N visible
02 Apr 4.0 21:42:22 10° S 21:47:11 44° W 21:52:05 10° NNW visible
03 Apr 3.0 21:05:20 10° SSE 21:10:25 89° ENE 21:15:33 10° NNW visible
03 Apr 5.6 22:47:49 10° WSW 22:50:10 13° W 22:52:31 10° WNW visible
04 Apr 3.4 20:29:01 10° SE 20:33:49 45° ENE 20:38:39 10° N visible
04 Apr 4.8 22:08:45 10° SSW 22:13:01 27° W 22:17:20 10° NW visible
